Flag for Greece Weather past 2 weeks in Nikaia, Greece

Now
97 °F

Passing clouds.


Feels Like: 95 °F
Forecast: 75 / 94 °F
Wind: 14 mph from Southwest

Location: Elefsis Airport

Current Time: Jul 29, 2014 at 4:12:00 PM

Latest Report: Jul 29, 2014 at 3:20 PM


Visibility: N/A

Pressure: 29.77 "Hg

Humidity: 25%

Dew point: 55 °F

Location of NikaiaLocation

Historic Weather in Nikaia — Graph

°F

Nikaia temperature yesterday

Maximum temperature yesterday: 95 °F (at 2:50 PM)
Minimum temperature yesterday: 57 °F (at 3:50 AM)
Average temperature yesterday: 84 °F

Past Weeks' High & Low Weather Summary

 TemperatureHumidityPressure
High97 °F (Jul 21, 2:50 PM)100% (Jul 28, 3:50 AM)29.92 "Hg (Jul 28, 3:50 AM)
Low57 °F (Jul 28, 3:50 AM)20% (Jul 14, 2:50 PM)29.65 "Hg (Jul 23, 12:50 PM)
Average82 °F47%29.81 "Hg
* Reported Jul 14 2:20 PM — Jul 29 2:50 PM, Nikaia, Weather by CustomWeather, © 2014

Note: Actual official high and low records may vary slightly from our data, if they occured in-between our weather recording intervals... More about our weather records

Advertising

Nikaia weather history for previous 24 hours

 ConditionsComfort  
Time TempWeatherWind HumidityBarometerVisibility
2:50 PM
Jul 29
95 °FPassing clouds.14 mph26%29.77 "HgN/A
2:20 PM95 °FPassing clouds.14 mph28%29.77 "HgN/A
1:50 PM93 °FPassing clouds.16 mph30%29.77 "HgN/A
1:20 PM93 °FPassing clouds.16 mph30%29.77 "HgN/A
12:50 PM91 °FPassing clouds.16 mph34%29.77 "HgN/A
12:20 PM93 °FSunny.14 mph30%29.77 "Hg10 mi
11:50 AM93 °FSunny.14 mph30%29.77 "Hg10 mi
11:20 AM91 °FSunny.7 mph34%29.77 "Hg10 mi
10:50 AM91 °FSunny.9 mph30%29.77 "Hg10 mi
10:20 AM90 °FSunny.9 mph31%29.77 "Hg10 mi
9:50 AM90 °FSunny.12 mph31%29.77 "Hg10 mi
9:20 AM88 °FSunny.9 mph33%29.77 "Hg10 mi
8:50 AM88 °FSunny.12 mph33%29.77 "Hg10 mi
8:20 AM86 °FSunny.8 mph38%29.77 "Hg10 mi
7:50 AM82 °FSunny.9 mph42%29.77 "Hg10 mi
7:20 AM81 °FClear.12 mph51%29.74 "Hg10 mi
6:50 AM79 °FClear.No wind54%29.74 "Hg10 mi
6:20 AM79 °FClear.No wind54%29.74 "Hg10 mi
5:50 AM79 °FClear.6 mph54%29.74 "Hg10 mi
5:20 AM81 °FClear.7 mph51%29.74 "Hg10 mi
4:50 AM81 °FClear.7 mph51%29.74 "Hg10 mi
4:20 AM79 °FClear.No wind51%29.74 "Hg10 mi
3:50 AM79 °FClear.No wind51%29.74 "Hg10 mi
3:20 AM81 °FClear.No wind51%29.74 "Hg10 mi
2:50 AM81 °FClear.No wind51%29.74 "Hg10 mi
2:20 AM81 °FClear.No wind48%29.77 "Hg10 mi
1:50 AM81 °FClear.No wind48%29.77 "Hg10 mi
1:20 AM81 °FClear.6 mph48%29.77 "Hg10 mi
12:50 AM81 °FClear.No wind48%29.77 "Hg10 mi
12:20 AM81 °FClear.No wind51%29.77 "Hg10 mi
11:50 PM
Jul 28
81 °FClear.No wind51%29.77 "Hg10 mi
11:20 PM81 °FClear.5 mph58%29.77 "Hg10 mi
10:50 PM81 °FClear.5 mph58%29.77 "Hg10 mi
10:20 PM82 °FClear.No wind55%29.77 "Hg10 mi
9:50 PM82 °FClear.No wind55%29.77 "Hg10 mi
9:20 PM82 °FSunny.No wind58%29.77 "Hg10 mi
8:50 PM82 °FSunny.No wind58%29.77 "Hg10 mi
8:20 PM86 °FSunny.3 mph52%29.77 "Hg10 mi
7:50 PM86 °FSunny.3 mph52%29.77 "Hg10 mi
7:20 PM88 °FSunny.5 mph46%29.77 "Hg10 mi
6:50 PM88 °FSunny.5 mph43%29.77 "Hg10 mi
6:20 PM90 °FSunny.6 mph38%29.77 "Hg10 mi
5:50 PM90 °FSunny.7 mph38%29.77 "Hg10 mi
5:20 PM90 °FSunny.7 mph43%29.77 "Hg10 mi
4:50 PM90 °FSunny.8 mph43%29.77 "Hg10 mi
4:20 PM91 °FSunny.12 mph38%29.77 "Hg10 mi
Weather by CustomWeather, © 2014

See weather overviewHow to use our weather pages